Weather reports worldwide

Advertisment
Bamberg, Germany (10675): temperature & dewpoint: 25.09.2020 00:00:00 - 01.10.2020 00:00:00 (CEST)Bamberg, Germany (10675): temperature 5cm & temperature -5cm: 25.09.2020 00:00:00 - 01.10.2020 00:00:00 (CEST)Bamberg, Germany (10675): temperature -20cm & temperature -100cm: 25.09.2020 00:00:00 - 01.10.2020 00:00:00 (CEST)Bamberg, Germany (10675): wind speed & gusts: 25.09.2020 00:00:00 - 01.10.2020 00:00:00 (CEST)Bamberg, Germany (10675): wind direction: 25.09.2020 00:00:00 - 01.10.2020 00:00:00 (CEST)Bamberg, Germany (10675): reduced air pressure: 25.09.2020 00:00:00 - 01.10.2020 00:00:00 (CEST)Bamberg, Germany (10675): visibility: 25.09.2020 00:00:00 - 01.10.2020 00:00:00 (CEST)Bamberg, Germany (10675): sunshine duration: 25.09.2020 00:00:00 - 01.10.2020 00:00:00 (CEST)Bamberg, Germany (10675): precipitation: 25.09.2020 00:00:00 - 01.10.2020 00:00:00 (CEST)
Date & Time tt [°C] td [°C] tt 5cm [°C] tt -5cm [°C] tt -20cm [°C] tt -100cm [°C] ff [km/h] ff [kn] fx [km/h] fx [kn] dd ppp [hPa] vv [km] sd [min] rr [mm]
01.10.2020 00:00:00 - - - - - - - - - - - - - - -
30.09.2020 23:00:00 7,2 7,0 5,2 11,2 14,7 15,7 3 2 5 3 ESE 1014,5 4,8 0 0,0
30.09.2020 22:00:00 8,3 8,2 5,7 12,0 15,0 15,7 2 1 4 2 E 1014,6 0,2 0 0,0
30.09.2020 21:00:00 9,0 8,4 7,0 12,8 15,3 15,7 3 1 4 2 SE 1014,7 3,5 0 0,0
30.09.2020 20:00:00 10,9 10,2 8,5 14,0 15,4 15,7 2 1 4 2 ESE 1014,5 10 0 0,0
30.09.2020 19:00:00 12,2 10,7 10,6 15,1 15,5 15,7 4 2 5 3 SW 1014,5 9 1 0,0
30.09.2020 18:00:00 15,5 10,8 15,0 16,7 15,4 15,7 4 2 7 4 WSW 1014,4 41 52 0,0
30.09.2020 17:00:00 15,5 11,0 15,4 17,5 15,2 15,7 3 2 8 4 W 1014,8 33 6 0,0
30.09.2020 16:00:00 15,5 10,8 17,3 18,3 14,9 15,7 3 2 10 5 W 1015,4 26 21 0,0
30.09.2020 15:00:00 15,4 10,7 16,3 17,4 14,7 15,7 3 2 7 4 SE 1015,8 29 0 0,0
30.09.2020 14:00:00 15,1 11,4 16,3 17,4 14,4 15,7 3 2 8 5 ENE 1016,5 23 0 0,0
30.09.2020 13:00:00 13,9 10,4 15,3 17,0 14,1 15,7 5 3 9 5 SE 1017,1 20 0 0,0
30.09.2020 12:00:00 13,4 10,7 14,6 15,7 13,9 15,8 5 3 9 5 ESE 1017,4 15 0 0,0
30.09.2020 11:00:00 12,7 10,3 12,8 14,5 13,8 15,8 4 2 7 4 S 1017,9 - 0 0,0
30.09.2020 10:00:00 12,1 11,0 12,0 13,3 13,8 15,8 4 2 7 4 SSE 1018,1 8 0 0,0
30.09.2020 09:00:00 11,8 10,8 11,7 13,1 13,8 15,8 5 3 10 6 SSE 1018,2 8 0 0,0
30.09.2020 08:00:00 11,4 10,8 11,3 12,7 13,9 15,8 6 3 8 5 S 1018,0 4,4 0 0,0
30.09.2020 07:00:00 11,4 10,8 11,2 12,8 13,9 15,8 5 3 7 4 ESE 1017,9 4,2 0 0,0
30.09.2020 06:00:00 11,4 10,9 11,2 12,8 14,0 15,8 4 2 6 4 SSE 1017,9 5 0 0,0
30.09.2020 05:00:00 11,4 10,8 11,3 12,9 14,0 15,8 5 3 9 5 SSE 1018,1 6 0 0,1
30.09.2020 04:00:00 11,5 11,0 11,4 13,0 14,1 15,8 6 3 9 5 S 1018,3 2,6 0 0,4
30.09.2020 03:00:00 11,7 11,1 11,6 13,1 14,1 15,8 5 3 6 4 SE 1018,9 2,2 0 0,2
30.09.2020 02:00:00 12,0 11,3 11,7 13,2 14,2 15,8 4 2 5 3 SE 1019,0 5 0 0,0
30.09.2020 01:00:00 12,1 11,2 11,8 13,3 14,3 15,9 3 2 8 4 SSE 1019,0 7 0 0,0
30.09.2020 00:00:00 12,2 10,9 11,9 13,4 14,3 15,9 3 2 6 3 SSE 1019,0 16 0 0,0
29.09.2020 23:00:00 12,3 11,0 12,1 13,5 14,4 15,9 3 2 7 4 SE 1019,3 30 0 0,0
29.09.2020 22:00:00 12,4 11,0 12,0 13,6 14,5 15,9 5 3 11 6 S 1019,1 22 0 0,0
29.09.2020 21:00:00 12,7 11,2 12,4 13,8 14,6 15,9 6 3 10 5 SSW 1019,0 35 0 0,0
29.09.2020 20:00:00 12,6 10,9 12,1 14,0 14,8 15,9 3 1 14 7 WSW 1018,9 28 0 0,0
29.09.2020 19:00:00 13,4 10,4 12,8 14,5 14,8 15,9 8 4 16 9 SW 1018,4 61 0 0,0
29.09.2020 18:00:00 13,7 10,5 13,5 15,2 14,8 15,9 10 5 20 11 SW 1018,1 54 0 0,0
29.09.2020 17:00:00 14,4 9,8 14,4 16,5 14,7 16,0 11 6 22 12 SW 1017,5 59 0 0,0
29.09.2020 16:00:00 15,5 9,9 16,6 17,6 14,4 16,0 9 5 19 11 WSW 1017,2 58 2 0,0
29.09.2020 15:00:00 15,6 9,5 16,7 17,7 14,0 16,0 10 6 18 10 SW 1017,2 58 3 0,0
29.09.2020 14:00:00 15,5 8,9 16,7 18,2 13,4 16,0 7 4 15 8 WSW 1017,3 52 28 0,0
29.09.2020 13:00:00 15,7 8,5 19,7 18,6 12,7 16,0 3 2 9 5 ENE 1017,5 40 52 0,0
29.09.2020 12:00:00 13,9 7,6 17,4 17,1 12,2 16,0 5 3 10 6 ESE 1017,8 47 60 0,0
29.09.2020 11:00:00 11,4 8,2 13,2 14,1 11,9 16,0 8 4 10 6 SSE 1017,9 40 50 0,0
29.09.2020 10:00:00 7,9 6,7 9,2 11,1 11,9 16,0 3 2 6 3 ESE 1018,2 11 27 0,0
29.09.2020 09:00:00 5,4 5,0 6,1 9,0 12,0 16,0 3 2 4 2 ESE 1017,9 2,0 11 0,0
29.09.2020 08:00:00 4,1 3,8 4,0 8,3 12,2 16,1 0 0 4 2 N 1017,6 0,2 0 0,0
29.09.2020 07:00:00 3,5 3,4 2,9 8,0 12,4 16,1 3 2 4 2 E 1017,0 0,3 0 0,0
29.09.2020 06:00:00 3,5 3,2 2,5 8,2 12,7 16,1 2 1 6 4 S 1016,8 0,3 0 0,0
29.09.2020 05:00:00 4,0 3,7 2,4 8,6 13,0 16,1 2 1 4 2 E 1016,4 9 0 0,0
29.09.2020 04:00:00 4,7 4,3 2,8 9,1 13,3 16,1 3 2 5 3 E 1015,9 6 0 0,0
29.09.2020 03:00:00 6,3 5,9 4,0 9,9 13,5 16,1 5 3 5 3 ESE 1015,9 9 0 0,0
29.09.2020 02:00:00 7,3 7,0 5,9 10,5 13,8 16,1 3 2 7 4 E 1015,7 20 0 0,0
29.09.2020 01:00:00 7,7 6,7 5,6 10,9 14,0 16,2 6 3 10 5 SSE 1015,3 27 0 0,0
29.09.2020 00:00:00 9,7 9,1 7,2 11,7 14,2 16,2 6 4 9 5 S 1015,1 37 0 0,0
28.09.2020 23:00:00 9,1 8,7 8,6 12,3 14,4 16,2 4 2 4 2 SSE 1014,7 34 0 0,0
28.09.2020 22:00:00 9,6 9,2 9,0 12,7 14,6 16,2 3 2 4 2 E 1014,5 41 0 0,0
28.09.2020 21:00:00 9,9 9,2 9,4 13,3 14,8 16,2 3 2 5 3 ESE 1013,9 52 0 0,0
28.09.2020 20:00:00 10,5 9,3 9,8 13,9 14,9 16,3 2 1 5 3 S 1013,2 51 0 0,0
28.09.2020 19:00:00 12,9 9,5 11,0 15,1 14,9 16,3 5 3 5 3 S 1012,2 62 34 0,0
28.09.2020 18:00:00 13,8 10,0 13,9 16,3 14,7 16,3 3 2 6 3 SW 1011,6 75 3 0,0
28.09.2020 17:00:00 15,5 5,2 15,6 17,8 14,4 16,3 4 2 8 4 W 1011,1 70 0 0,0
28.09.2020 16:00:00 16,1 6,8 17,4 18,2 14,0 16,3 3 2 10 5 S 1011,1 54 0 0,0
28.09.2020 15:00:00 15,4 6,5 16,9 18,5 13,4 16,3 4 2 9 5 NNW 1011,0 46 16 0,0
28.09.2020 14:00:00 15,5 4,7 18,2 19,4 12,7 16,4 4 2 12 7 W 1011,3 67 60 0,0
28.09.2020 13:00:00 12,3 8,5 16,0 16,8 12,2 16,4 5 3 9 5 W 1011,6 44 26 0,0
28.09.2020 12:00:00 8,6 7,2 10,3 13,8 11,9 16,4 4 2 9 5 S 1012,1 23 7 0,0
28.09.2020 11:00:00 6,5 5,7 9,2 12,2 11,7 16,4 3 1 9 5 NE 1012,4 3,9 0 0,0
28.09.2020 10:00:00 5,4 4,9 7,4 10,6 11,7 16,4 5 3 9 5 NNW 1012,4 0,3 0 0,0
28.09.2020 09:00:00 5,1 4,9 6,2 9,3 11,7 16,4 7 4 10 6 NNW 1012,0 0,5 0 0,0
28.09.2020 08:00:00 4,6 4,5 5,2 8,6 11,8 16,4 4 2 9 5 NNE 1011,3 0,2 0 0,0
28.09.2020 07:00:00 3,7 3,6 4,2 8,4 11,9 16,5 4 2 7 4 NE 1011,3 0,2 0 0,0
28.09.2020 06:00:00 3,7 3,6 4,1 8,6 12,0 16,5 4 2 5 3 E 1011,5 0,1 0 0,0
28.09.2020 05:00:00 3,8 3,6 4,0 8,7 12,2 16,5 3 2 5 3 SE 1011,1 0,1 0 0,0
28.09.2020 04:00:00 4,0 3,8 4,4 8,7 12,3 16,5 3 1 5 3 ENE 1010,6 0,1 0 0,0
28.09.2020 03:00:00 4,3 4,1 4,7 8,7 12,5 16,5 3 1 5 3 ENE 1010,4 0,1 0 0,0
28.09.2020 02:00:00 3,5 3,4 3,5 8,6 12,8 16,5 4 2 6 3 ESE 1010,4 0,3 0 0,0
28.09.2020 01:00:00 3,8 3,6 3,3 8,7 13,1 16,6 0 0 5 3 N 1010,2 0,2 0 0,0
28.09.2020 00:00:00 4,0 3,7 2,7 8,9 13,4 16,6 3 2 5 3 NNE 1010,3 14 0 0,0
27.09.2020 23:00:00 4,2 3,7 2,4 9,3 13,7 16,6 3 2 5 3 E 1010,3 7 0 0,0
27.09.2020 22:00:00 5,4 5,0 3,4 10,0 14,0 16,6 3 2 4 2 E 1009,6 1,9 0 0,0
27.09.2020 21:00:00 6,4 6,2 4,0 10,9 14,3 16,6 3 2 4 2 SE 1008,6 44 0 0,0
27.09.2020 20:00:00 7,4 6,6 5,2 12,0 14,5 16,7 4 2 5 3 SE 1007,6 41 0 0,0
27.09.2020 19:00:00 10,1 7,9 7,7 13,7 14,5 16,7 3 2 6 4 S 1006,7 55 10 0,0
27.09.2020 18:00:00 14,4 7,9 15,2 15,5 14,4 16,7 0 0 9 5 N 1005,8 75 8 0,0
27.09.2020 17:00:00 14,3 7,5 16,2 16,4 14,1 16,7 7 4 20 11 SE 1005,5 50 42 0,0
27.09.2020 16:00:00 13,5 7,6 14,4 15,7 13,9 16,7 9 5 22 12 SSE 1005,5 75 7 0,0
27.09.2020 15:00:00 13,3 6,5 16,0 16,3 13,5 16,8 12 7 24 13 SSE 1005,0 52 16 0,0
27.09.2020 14:00:00 12,5 6,5 14,2 15,3 13,3 16,8 11 6 20 11 SSE 1005,2 62 1 0,0
27.09.2020 13:00:00 11,9 6,9 13,3 14,6 13,0 16,8 10 6 18 10 SSE 1004,9 64 7 0,0
27.09.2020 12:00:00 10,9 6,6 11,5 14,0 12,7 16,8 9 5 14 8 SE 1004,7 72 6 0,0
27.09.2020 11:00:00 10,3 7,1 10,7 13,2 12,5 16,8 9 5 16 9 SSE 1004,1 75 5 0,0
27.09.2020 10:00:00 9,3 7,1 10,1 11,7 12,5 16,8 10 6 16 9 SSE 1003,3 75 0 0,0
27.09.2020 09:00:00 8,6 6,6 8,6 10,4 12,5 16,9 10 5 18 10 S 1002,5 75 5 0,0
27.09.2020 08:00:00 8,2 6,7 7,5 9,9 12,6 16,9 11 6 23 13 S 1002,0 73 0 0,0
27.09.2020 07:00:00 8,1 7,0 7,7 9,8 12,7 16,9 11 6 20 11 SSE 1001,2 72 0 0,0
27.09.2020 06:00:00 8,1 7,2 7,9 10,2 12,8 16,9 9 5 22 12 S 1000,6 10 0 0,1
27.09.2020 05:00:00 8,2 7,4 7,9 10,3 12,9 16,9 9 5 18 10 S 1000,2 15 0 0,1
27.09.2020 04:00:00 8,4 7,6 8,1 10,4 12,9 16,9 8 4 12 7 SSE 1000,1 18 0 0,1
27.09.2020 03:00:00 8,4 7,8 8,3 10,5 13,0 17,0 5 3 8 5 SSE 999,8 9 0 0,2
27.09.2020 02:00:00 8,4 7,5 8,0 10,6 13,1 17,0 5 3 11 6 S 999,3 29 0 0,1
27.09.2020 01:00:00 8,6 7,9 8,3 10,7 13,2 17,0 6 3 9 5 SW 998,7 18 0 0,6
27.09.2020 00:00:00 8,6 8,0 8,2 10,8 13,3 17,0 4 2 6 4 SW 998,3 15 0 0,5
26.09.2020 23:00:00 8,5 7,9 8,2 11,0 13,4 17,0 0 0 5 3 N 998,2 12 0 0,8
26.09.2020 22:00:00 8,6 7,9 8,6 11,0 13,5 17,0 3 2 9 5 SE 997,9 17 0 1,3
26.09.2020 21:00:00 8,8 8,1 8,6 11,0 13,6 17,1 6 4 11 6 SW 997,9 15 0 1,5
26.09.2020 20:00:00 8,8 8,0 8,5 11,2 13,7 17,1 7 4 11 6 SSW 998,0 15 0 1,8
26.09.2020 19:00:00 8,7 7,9 8,6 11,4 13,8 17,1 2 1 8 5 ESE 997,8 11 0 3,5
26.09.2020 18:00:00 8,9 7,8 8,7 11,8 13,9 17,1 5 3 8 4 SSW 997,7 10 0 2,3
26.09.2020 17:00:00 9,2 7,4 8,8 12,3 13,9 17,1 6 3 10 6 WSW 997,6 8 0 0,8
26.09.2020 16:00:00 9,5 7,0 9,3 12,7 13,8 17,1 6 3 11 6 W 997,5 46 0 0,1
26.09.2020 15:00:00 9,3 6,6 9,4 12,8 13,7 17,1 4 2 17 9 W 998,0 73 0 0,0
26.09.2020 14:00:00 8,9 6,7 9,2 12,7 13,6 17,1 9 5 17 9 SW 998,0 40 0 0,0
26.09.2020 13:00:00 8,7 6,8 9,5 12,1 13,6 17,2 8 4 21 12 SSW 998,8 54 0 0,0
26.09.2020 12:00:00 9,3 5,2 9,4 12,1 13,6 17,2 13 7 24 13 WSW 998,8 68 0 0,0
26.09.2020 11:00:00 9,0 5,8 9,0 11,3 13,6 17,2 7 4 23 12 WSW 998,7 75 0 0,0
26.09.2020 10:00:00 8,6 6,3 8,2 11,0 13,7 17,2 9 5 28 15 WSW 998,7 24 0 0,0
26.09.2020 09:00:00 9,0 6,2 8,4 10,9 13,8 17,2 13 7 22 12 WSW 998,5 47 0 0,0
26.09.2020 08:00:00 8,7 6,6 8,1 10,6 13,9 17,2 8 5 21 12 W 998,7 62 0 0,0
26.09.2020 07:00:00 9,1 6,5 8,7 10,6 14,0 17,2 9 5 19 10 WSW 998,8 68 0 0,0
26.09.2020 06:00:00 9,1 6,6 8,4 10,7 14,1 17,2 8 4 16 9 SW 998,9 69 0 0,0
26.09.2020 05:00:00 9,4 6,6 8,7 11,0 14,2 17,2 9 5 19 10 WSW 999,1 61 0 0,0
26.09.2020 04:00:00 9,4 7,2 8,7 11,1 14,4 17,2 8 4 17 9 W 999,0 61 0 0,0
26.09.2020 03:00:00 8,8 7,5 8,4 11,1 14,5 17,2 5 3 10 5 SSW 999,3 45 0 0,0
26.09.2020 02:00:00 8,6 7,3 8,0 11,1 14,7 17,2 6 3 11 6 S 999,7 55 0 0,0
26.09.2020 01:00:00 8,9 7,4 8,0 11,2 14,8 17,3 8 4 13 7 SSW 999,5 58 0 0,0
26.09.2020 00:00:00 9,1 8,0 8,4 11,6 15,0 17,3 6 3 10 6 S 999,8 46 0 0,0
25.09.2020 23:00:00 9,0 8,0 8,6 11,7 15,2 17,3 8 4 11 6 SE 1000,4 47 0 0,5
25.09.2020 22:00:00 9,4 7,2 9,0 11,8 15,4 17,3 6 4 12 6 SSE 1000,3 51 0 0,0
25.09.2020 21:00:00 9,2 7,2 8,7 11,8 15,6 17,3 6 4 16 9 SE 1000,8 53 0 0,0
25.09.2020 20:00:00 9,9 7,1 9,4 12,4 15,8 17,3 10 5 15 8 SSE 1000,7 54 0 0,0
25.09.2020 19:00:00 10,2 7,4 9,6 13,2 15,9 17,3 5 3 7 4 ESE 1000,1 45 0 0,0
25.09.2020 18:00:00 10,8 6,2 10,1 13,5 16,1 17,3 5 3 16 9 SSE 1000,2 61 0 0,0
25.09.2020 17:00:00 11,6 6,2 11,1 13,9 16,2 17,3 8 4 18 10 SW 1000,7 39 0 0,0
25.09.2020 16:00:00 12,0 5,6 11,8 14,5 16,3 17,3 9 5 26 14 WSW 1000,4 58 0 0,0
25.09.2020 15:00:00 12,3 5,5 12,6 15,1 16,4 17,3 11 6 29 16 W 1000,7 51 0 0,0
25.09.2020 14:00:00 12,5 5,4 13,2 16,2 16,3 17,3 12 7 29 15 W 1000,3 57 7 0,0
25.09.2020 13:00:00 12,8 7,6 14,3 16,2 16,2 17,3 16 8 29 16 SW 1001,2 64 1 0,0
25.09.2020 12:00:00 12,6 7,6 13,6 16,3 16,2 17,3 11 6 25 14 W 1001,0 75 0 0,0
25.09.2020 11:00:00 12,4 8,1 12,8 15,6 16,2 17,3 12 6 22 12 WSW 1001,0 75 0 0,0
25.09.2020 10:00:00 12,0 8,0 11,7 14,9 16,2 17,3 9 5 23 12 W 1000,5 75 11 0,0
25.09.2020 09:00:00 12,0 8,9 11,2 14,0 16,3 17,3 8 5 24 13 W 1000,0 - 0 0,0
25.09.2020 08:00:00 13,1 10,5 12,0 14,2 16,4 17,3 10 5 22 12 W 999,7 60 0 0,0
25.09.2020 07:00:00 13,5 12,5 12,7 14,3 16,6 17,3 8 4 13 7 SSW 999,2 48 0 0,0
25.09.2020 06:00:00 13,0 12,6 12,5 14,3 16,7 17,3 8 4 10 6 S 999,3 - 0 0,0
25.09.2020 05:00:00 12,8 12,3 12,2 14,6 16,9 17,3 4 2 8 5 SSE 999,7 41 0 0,3
25.09.2020 04:00:00 13,2 12,7 13,0 14,9 17,0 17,3 4 2 8 4 S 1000,5 4,8 0 0,0
25.09.2020 03:00:00 13,2 12,6 12,4 14,9 17,2 17,4 4 2 9 5 SW 1001,0 59 0 0,0
25.09.2020 02:00:00 13,8 12,7 13,1 15,3 17,3 17,4 8 5 28 15 NNE 1001,1 38 0 4,2
25.09.2020 01:00:00 15,6 14,8 15,0 15,8 17,5 17,4 11 6 17 9 SSE 1001,9 17 0 2,0
25.09.2020 00:00:00 15,4 14,5 14,8 16,0 17,6 17,4 7 4 16 9 SE 1002,4 22 0 2,9

tt = temperature
td = dewpoint
tt 5cm = temperature 5cm
tt -5cm = temperature -5cm
tt -20cm = temperature -20cm
tt -100cm = temperature -100cm
ff = wind speed
fx = gusts
dd = wind direction
ppp = reduced air pressure
vv = visibility
sd = sunshine duration
rr = precipitation

Next stations